Regional Weather Roundup
Issued by NWS

Home | Current Version | Previous Version | Graphics & Text | Print | Product List | Glossary On
Versions: 1 2 3 4 5 6 7 8 9 10 11 12 13 14 15 16 17 18 19 20 21 22 23 24 25 26 27 28 29 30 31 32 33 34 35 36 37 38 39 40 41 42 43 44 45 46 47 48 49 50
000
ASUS43 KMKX 271711
RWRWI

WISCONSIN REGIONAL WEATHER ROUNDUP
NATIONAL WEATHER SERVICE MILWAUKEE/SULLIVAN WI
1100 AM CST SAT DEC 27 2014

NOTE: "FAIR" INDICATES FEW OR NO CLOUDS BELOW 12,000 FEET WITH NO
SIGNIFICANT WEATHER AND/OR OBSTRUCTIONS TO VISIBILITY.

WIZ001-002-006>008-014>016-023>028-271800-
NORTHWEST WISCONSIN

CITY           SKY/WX    TMP DP  RH WIND       PRES   REMARKS
SUPERIOR ARPT  SUNNY     22  13  67 NW13      30.05S WCI  10
ASHLAND        CLOUDY    26  21  81 NW12      29.99S WCI  16
HAYWARD        CLOUDY    23  19  85 NW6       29.98S WCI  16
SIREN          PTSUNNY   21  15  76 NW8       30.04R WCI  11
CUMBERLAND     CLOUDY    23  19  86 NW12      29.99R WCI  12
RICE LAKE      CLOUDY    24  19  81 NW5       30.01R WCI  19
CHETEK         CLOUDY    25  20  83 NW7       29.99R WCI  17
LADYSMITH      LGT SNOW  29  25  84 NW12      29.94S WCI  19
EAU CLAIRE     CLOUDY    26  20  77 NW12      29.99R WCI  16
MENOMONIE      MOSUNNY   27  20  76 NW12      30.02R WCI  16
NEW RICHMOND   CLOUDY    24  19  83 NW16      30.05R WCI  10
OSCEOLA        CLOUDY    23  19  84 NW9G18    30.09R WCI  13
$$

WIZ003>005-009-010-017-018-271800-
NORTH CENTRAL WISCONSIN

CITY           SKY/WX    TMP DP  RH WIND       PRES   REMARKS
MANITOWISH WTR LGT SNOW  28  27  96 N6        29.86F WCI  22
ARBOR VITAE    LGT SNOW  32  30  92 N8        29.85F VSB 3/4 WCI  25
WOODRUFF       LGT SNOW  32  30  92 N8        29.85F VSB 3/4 WCI  25
RHINELANDER    LGT SNOW  28  27  96 N6        29.84S VSB 3/4 WCI  22
EAGLE RIVER    LGT SNOW  29  28  96 N7        29.83F VSB 1   WCI  22
LAND O LAKES   LGT SNOW  29  27  92 N7        29.84F VSB 1   WCI  22
PHILLIPS       LGT SNOW  28  26  91 N9        29.87F WCI  19
TOMAHAWK       LGT SNOW  29  27  90 NW8       29.84F WCI  21
MEDFORD        LGT SNOW  30  27  88 NW14      29.85R WCI  19
MERRILL        LGT SNOW  31  29  92 N10       29.83S WCI  22
$$

WIZ029-030-035-036-043>047-271800-
CENTRAL WISCONSIN

CITY           SKY/WX    TMP DP  RH WIND       PRES   REMARKS
WAUSAU         LGT SNOW  31  29  92 NW8       29.81S FOG     WCI  23
MOSINEE        LGT SNOW  30  30 100 NW6       29.83S FOG     WCI  24
MARSHFIELD     CLOUDY    31  27  85 NW15      29.86R WCI  20
STEVENS POINT  MIX PCPN  31  31 100 W5        29.83R WCI  26
WAUPACA        CLOUDY    37  35  95 SW9       29.83R FOG     WCI  30
WAUTOMA        CLOUDY    36  36 100 W13G22    29.85S WCI  27
WISC RAPIDS    CLOUDY    33  30  88 W12       29.87R WCI  24
CAMP DOUGLAS   MIX PCPN  32  32 100 W13G22    29.90F WCI  22
$$

WIZ011>013-019>022-031-037>040-048>050-271800-
NORTHEAST WISCONSIN

CITY           SKY/WX    TMP DP  RH WIND       PRES   REMARKS
ANTIGO         LGT SNOW  30  29  98 N6        29.79S WCI  24
SHAWANO        LGT RAIN  34  33  96 CALM      29.80F
OCONTO         CLOUDY    32  32 100 N3        29.79F
STURGEON BAY   CLOUDY    36  34  93 NW8       29.79F WCI  29
GREEN BAY      CLOUDY    35  35 100 W8        29.81S FOG     WCI  29
MANITOWOC      CLOUDY    44  43  96 W18G26    29.80F
APPLETON       FOG       36  36 100 SW14      29.82F VSB 3/4 WCI  27
CLINTONVILLE   DRIZZLE   32  32 100 CALM      29.80F
OSHKOSH        CLOUDY    39  35  86 W13G21    29.83S WCI  31
$$

WIZ032>034-041-042-053>061-271800-
SOUTHWEST WISCONSIN

CITY           SKY/WX    TMP DP  RH WIND       PRES   REMARKS
LA CROSSE      CLOUDY    32  27  81 W15       30.00R WCI  22
SPARTA         CLOUDY    31  29  93 W10       29.95S WCI  22
VIROQUA        CLOUDY    30  30 100 W14G21    29.96R WCI  19
BOSCOBEL       CLOUDY    34  29  82 W14G23    29.99S WCI  25
PRAIRIE DU CHI CLOUDY    32  28  83 W15       30.03R WCI  22
PLATTEVILLE    CLOUDY    34  31  89 W18G26    30.00R WCI  23
$$

WIZ056-057-062-063-064-067-068-271800-
SOUTH CENTRAL WISCONSIN

CITY           SKY/WX    TMP DP  RH WIND       PRES   REMARKS
REEDSBURG      CLOUDY    33  32  96 W14G24    29.90F WCI  23
BARABOO/DELLS  CLOUDY    35  32  88 W13G24    29.88F WCI  26
LONE ROCK      CLOUDY    38  31  76 W18       29.95R WCI  28
MINERAL POINT  CLOUDY    34  32  93 W20G25    29.95R WCI  22
MADISON        CLOUDY    37  31  78 W9G20     29.90S WCI  30
MIDDLETON      CLOUDY    37  32  81 W18G28    29.91F WCI  27
WATERTOWN      CLOUDY    38  35  90 SW15G26   29.88R WCI  29
MONROE         CLOUDY    34  32  93 SW28G35   29.96R WCI  20
JANESVILLE     CLOUDY    37  34  87 W22       29.95R WCI  27
$$

WIZ051-052-058>065-066-070>072-271800-
SOUTHEAST WISCONSIN

CITY           SKY/WX    TMP DP  RH WIND       PRES   REMARKS
MILWAUKEE      CLOUDY    49  41  74 SW23G35   29.86R
WAUKESHA       CLOUDY    41  37  87 W21G29    29.88R FOG
MILWAUKEE/TIMM CLOUDY    46  43  87 W23G35    29.84F
RACINE         CLOUDY    50  45  83 SW14G24   29.88F
BURLINGTON     CLOUDY    41  38  86 W20G28    29.90R
KENOSHA        CLOUDY    48  44  86 W30G38    29.89F
FOND DU LAC    CLOUDY    40  36  86 W16G26    29.84R WCI  31
SHEBOYGAN      CLOUDY    46  43  89 W16       29.81S
WEST BEND      CLOUDY    43  39  87 W25G36    29.84R
JUNEAU         CLOUDY    39  35  87 SW20      29.87S WCI  29
$$

LSZ147-162-271800-
LAKE SUPERIOR

STATION/POSITION TIME  TEMP    WIND        PRES    WAVE
                       AIR SEA DIR/SP/G            HT/PER
                 (UTC) (F)     (DEG/KT/KT) (MB)    (FT/S)
DEVILS ISLAND    1700   24     330/ 13/ 16 1016.7F
PORT WING        1640   24     310/  9/ 13 1016.9R
SAXON HARBOR     1600   30      10/ 12/ 16 1015.2R
$$

LMZ867-665-643>646-271800-
LAKE MICHIGAN

STATION/POSITION TIME  TEMP    WIND        PRES    WAVE
                       AIR SEA DIR/SP/G            HT/PER
                 (UTC) (F)     (DEG/KT/KT) (MB)    (FT/S)
CHAMBERS ISLAND  1600   33      10/ 17/ 20 1008.8F
NORTHPORT PIER   1620   34     360/ 17/ 19 1008.5S
SISTER BAY       1543           10/ 11/ 14   N/A
ALGOMA LAKESHORE 1615          250/ 14/ 19   N/A
KEWAUNEE LAKESHO 1600   43     230/  9/ 12 1008.3R
SHEBOYGAN LAKESH 1700   48 39  230/ 15/ 18 1009.8F
PORT WASHINGTON  1700   49     240/ 15/ 27 1010.8F
MILWAUKEE LAKESH 1600   49     220/ 20/ 26   N/A
KENOSHA   LAKESH 1700   49     240/ 20/ 29 1012.5F
$$

TC  - TEMPERATURE IN CELSIUS
VSB - VISIBILITY IN STATUTE MILES
WCI - WIND CHILL INDEX
HX  - HEAT INDEX



USA.gov is the U.S. government's official web portal to all federal, state and local government web resources and services.